Flag for Spain Weather past 2 weeks in Almería, Spain

Now
65 °F

Mild.


Feels Like: 65 °F
Forecast: 54 / 64 °F
Wind: 13 mph from South

Location: Almeria / Aeropuerto

Current Time: Feb 27, 2015 at 4:22:01 PM

Latest Report: Feb 27, 2015 at 3:00 PM


Visibility: N/A

Pressure: 30.05 "Hg

Humidity: 69%

Dew point: 55 °F

Location of AlmeríaLocation

Historic Weather in Almería — Graph

°F

Almería temperature yesterday

Maximum temperature yesterday: 71 °F (at 11:00 AM)
Minimum temperature yesterday: 54 °F (at 2:00 AM)
Average temperature yesterday: 62 °F

Past Weeks' High & Low Weather Summary

 TemperatureHumidityPressure
High71 °F (Feb 26, 11:00 AM)94% (Feb 14, 1:00 AM)30.38 "Hg (Feb 14, 1:00 AM)
Low47 °F (Feb 21, 6:00 AM)22% (Feb 24, 11:00 AM)29.68 "Hg (Feb 21, 4:00 PM)
Average58 °F64%30.11 "Hg
* Reported Feb 12 3:00 PM — Feb 27 3:00 PM, Almería, Weather by CustomWeather, © 2015

Note: Actual official high and low records may vary slightly from our data, if they occured in-between our weather recording intervals... More about our weather records

Advertising

Almería weather history for previous 24 hours

 ConditionsComfort  
Time TempWeatherWind HumidityBarometerVisibility
3:00 PM
Fri, Feb 27
65 °FMild.13 mph69%30.05 "HgN/A
2:00 PM64 °FMild.13 mph72%30.07 "HgN/A
1:00 PM67 °FPartly sunny.12 mph62%30.10 "Hg19 mi
12:00 PM63 °FMild.7 mph73%30.10 "HgN/A
11:00 AM65 °FMild.10 mph59%30.10 "HgN/A
10:00 AM67 °FPartly sunny.2 mph49%30.10 "Hg19 mi
9:00 AM64 °FMild.13 mph43%30.09 "HgN/A
7:00 AM61 °FClear.16 mph51%30.06 "Hg19 mi
6:00 AM64 °FMild.17 mph41%30.05 "HgN/A
5:00 AM65 °FMild.18 mph38%30.05 "HgN/A
3:00 AM66 °FMild.22 mph41%30.06 "HgN/A
2:00 AM67 °FMild.22 mph39%30.08 "HgN/A
1:00 AM60 °FCool.5 mph82%30.09 "HgN/A
12:00 AM59 °FCool.2 mph85%30.09 "HgN/A
11:00 PM
Thu, Feb 26
57 °FCool.5 mph87%30.10 "HgN/A
10:00 PM56 °FPassing clouds.2 mph85%30.11 "Hg16 mi
9:00 PM57 °FCool.5 mph87%30.12 "HgN/A
8:00 PM59 °FCool.5 mph80%30.13 "HgN/A
7:00 PM61 °FPassing clouds.5 mph76%30.11 "Hg19 mi
6:00 PM65 °FMild.13 mph60%30.11 "HgN/A
5:00 PM66 °FMild.16 mph54%30.11 "HgN/A
4:00 PM66 °FScattered clouds.13 mph59%30.12 "Hg28 mi
Weather by CustomWeather, © 2015

See weather overviewHow to use our weather pages